When you browse on this site, cookies collect data to enhance your experience and personalize the content and advertising you see.
Visit our Privacy Policy to learn more. By continuing to use the site, you agree to this use of cookies and data.

Hourly Weather Litin

Today, 4 August, Tuesday

Time Temperature Precipitation Wind Pressure Humidity
00:00 +17°C° 0 mm 4 mps 735 mmHg 64%
01:00 +15°C° 0 mm 4 mps 735 mmHg 65%
02:00 +15°C° 0 mm 4 mps 735 mmHg 68%
03:00 +15°C° 0 mm 4 mps 735 mmHg 70%
04:00 +14°C° 0 mm 4 mps 735 mmHg 72%
05:00 +14°C° 0 mm 4 mps 735 mmHg 75%
06:00 +16°C° 0 mm 5 mps 735 mmHg 70%
07:00 +19°C° 0 mm 5 mps 735 mmHg 66%
08:00 +20°C° 0 mm 5 mps 736 mmHg 60%
09:00 +22°C° 0 mm 6 mps 736 mmHg 56%
10:00 +23°C° 0 mm 6 mps 736 mmHg 52%
11:00 +24°C° 0 mm 6 mps 736 mmHg 48%
12:00 +26°C° 0 mm 6 mps 736 mmHg 47%
13:00 +26°C° 0 mm 6 mps 736 mmHg 47%
14:00 +27°C° 0 mm 5 mps 736 mmHg 46%
15:00 +27°C° 0 mm 5 mps 735 mmHg 49%
16:00 +27°C° 0 mm 4 mps 735 mmHg 51%
17:00 +27°C° 0 mm 4 mps 735 mmHg 53%
18:00 +25°C° 0 mm 4 mps 735 mmHg 56%
19:00 +22°C° 0 mm 4 mps 735 mmHg 59%
20:00 +20°C° 0 mm 4 mps 735 mmHg 63%
21:00 +20°C° 0 mm 4 mps 735 mmHg 61%
22:00 +19°C° 0 mm 4 mps 735 mmHg 60%
23:00 +19°C° 0 mm 4 mps 735 mmHg 58%

Tomorrow, 5 August, Wednesday

Time Temperature Precipitation Wind Pressure Humidity
00:00 +18°C° 0 mm 3 mps 735 mmHg 60%
01:00 +17°C° 0 mm 3 mps 736 mmHg 62%
02:00 +17°C° 0 mm 3 mps 736 mmHg 63%
03:00 +16°C° 0 mm 2 mps 736 mmHg 64%
04:00 +16°C° 0 mm 2 mps 736 mmHg 64%
05:00 +16°C° 0 mm 2 mps 736 mmHg 65%
06:00 +17°C° 0 mm 2 mps 736 mmHg 63%
07:00 +19°C° 0 mm 3 mps 737 mmHg 60%
08:00 +21°C° 0 mm 3 mps 737 mmHg 58%
09:00 +24°C° 0 mm 3 mps 738 mmHg 54%
10:00 +26°C° 0 mm 4 mps 738 mmHg 51%
11:00 +27°C° 0 mm 4 mps 738 mmHg 47%
12:00 +28°C° 0 mm 4 mps 738 mmHg 45%
13:00 +29°C° 0 mm 3 mps 738 mmHg 43%
14:00 +29°C° 0 mm 3 mps 738 mmHg 42%
15:00 +29°C° 0 mm 3 mps 738 mmHg 43%
16:00 +29°C° 0 mm 3 mps 738 mmHg 45%
17:00 +29°C° 0 mm 2 mps 738 mmHg 47%
18:00 +27°C° 0 mm 2 mps 738 mmHg 50%
19:00 +25°C° 0 mm 2 mps 738 mmHg 54%
20:00 +23°C° 0 mm 2 mps 738 mmHg 58%
21:00 +21°C° 0 mm 2 mps 738 mmHg 60%
22:00 +20°C° 0 mm 2 mps 739 mmHg 62%
23:00 +20°C° 0 mm 2 mps 739 mmHg 64%

Day after tomorrow, 6 August, Thursday

Time Temperature Precipitation Wind Pressure Humidity
00:00 +19°C° 0 mm 2 mps 739 mmHg 65%
01:00 +19°C° 0 mm 2 mps 739 mmHg 66%
02:00 +18°C° 0 mm 2 mps 739 mmHg 67%
03:00 +18°C° 0 mm 2 mps 740 mmHg 67%
04:00 +18°C° 0 mm 2 mps 740 mmHg 68%
05:00 +17°C° 0 mm 2 mps 740 mmHg 69%
06:00 +19°C° 0 mm 2 mps 740 mmHg 66%
07:00 +21°C° 0 mm 2 mps 741 mmHg 64%
08:00 +24°C° 0 mm 2 mps 741 mmHg 61%
09:00 +25°C° 0 mm 3 mps 741 mmHg 56%
10:00 +27°C° 0 mm 3 mps 742 mmHg 52%
11:00 +28°C° 0 mm 3 mps 742 mmHg 47%
12:00 +29°C° 0 mm 3 mps 742 mmHg 47%
13:00 +29°C° 0 mm 4 mps 742 mmHg 46%
14:00 +29°C° 0 mm 4 mps 742 mmHg 46%
15:00 +29°C° 0 mm 4 mps 741 mmHg 48%
16:00 +29°C° 0 mm 4 mps 741 mmHg 51%
17:00 +28°C° 0 mm 4 mps 741 mmHg 53%
18:00 +26°C° 0 mm 3 mps 741 mmHg 58%
19:00 +24°C° 0 mm 3 mps 741 mmHg 62%
20:00 +23°C° 0 mm 2 mps 741 mmHg 66%
21:00 +21°C° 0 mm 2 mps 741 mmHg 68%
22:00 +20°C° 0 mm 2 mps 742 mmHg 69%
23:00 +20°C° 0 mm 2 mps 742 mmHg 70%

7 August, Friday

Time Temperature Precipitation Wind Pressure Humidity
00:00 +19°C° 0 mm 2 mps 742 mmHg 72%
01:00 +19°C° 0 mm 2 mps 742 mmHg 74%
02:00 +18°C° 0 mm 2 mps 742 mmHg 76%
03:00 +18°C° 0 mm 2 mps 742 mmHg 78%
04:00 +17°C° 0 mm 2 mps 742 mmHg 80%
05:00 +17°C° 0 mm 2 mps 742 mmHg 81%
06:00 +19°C° 0 mm 2 mps 742 mmHg 77%
07:00 +21°C° 0 mm 3 mps 742 mmHg 74%
08:00 +22°C° 0 mm 3 mps 742 mmHg 70%
09:00 +25°C° 0 mm 3 mps 743 mmHg 64%
10:00 +26°C° 0 mm 4 mps 743 mmHg 59%
11:00 +28°C° 0 mm 4 mps 743 mmHg 54%
12:00 +28°C° 0 mm 4 mps 742 mmHg 53%
13:00 +29°C° 0 mm 4 mps 742 mmHg 53%
14:00 +29°C° 0 mm 4 mps 742 mmHg 52%
15:00 +29°C° 0 mm 4 mps 742 mmHg 54%
16:00 +29°C° 0 mm 3 mps 741 mmHg 57%
17:00 +28°C° 0 mm 3 mps 741 mmHg 59%
18:00 +27°C° 0.1 mm 3 mps 741 mmHg 67%
19:00 +25°C° 0.1 mm 3 mps 741 mmHg 75%
20:00 +22°C° 0.1 mm 3 mps 741 mmHg 83%
21:00 +21°C° 0 mm 3 mps 741 mmHg 84%
22:00 +20°C° 0 mm 3 mps 741 mmHg 84%
23:00 +20°C° 0 mm 3 mps 741 mmHg 85%

8 August, Saturday

Time Temperature Precipitation Wind Pressure Humidity
00:00 +19°C° 0 mm 3 mps 741 mmHg 86%
01:00 +18°C° 0 mm 3 mps 741 mmHg 88%
02:00 +18°C° 0 mm 3 mps 741 mmHg 90%
03:00 +17°C° 0 mm 3 mps 741 mmHg 91%
04:00 +17°C° 0 mm 3 mps 741 mmHg 92%
05:00 +16°C° 0 mm 3 mps 741 mmHg 93%
06:00 +18°C° 0 mm 3 mps 741 mmHg 86%
07:00 +19°C° 0 mm 4 mps 741 mmHg 78%
08:00 +21°C° 0 mm 4 mps 741 mmHg 71%
09:00 +22°C° 0 mm 4 mps 741 mmHg 66%
10:00 +23°C° 0 mm 5 mps 741 mmHg 62%
11:00 +25°C° 0 mm 5 mps 741 mmHg 57%
12:00 +26°C° 0 mm 5 mps 741 mmHg 56%
13:00 +26°C° 0 mm 5 mps 740 mmHg 55%
14:00 +27°C° 0 mm 5 mps 740 mmHg 53%
15:00 +26°C° 0 mm 5 mps 740 mmHg 55%
16:00 +26°C° 0 mm 5 mps 739 mmHg 56%
17:00 +26°C° 0 mm 4 mps 739 mmHg 58%
18:00 +23°C° 0 mm 4 mps 739 mmHg 64%
19:00 +21°C° 0 mm 3 mps 739 mmHg 71%
20:00 +20°C° 0 mm 3 mps 739 mmHg 77%
21:00 +19°C° 0 mm 3 mps 739 mmHg 80%
22:00 +18°C° 0 mm 2 mps 739 mmHg 82%
23:00 +17°C° 0 mm 2 mps 739 mmHg 84%

9 August, Sunday

Time Temperature Precipitation Wind Pressure Humidity
00:00 +17°C° 0 mm 2 mps 739 mmHg 85%
01:00 +17°C° 0 mm 2 mps 738 mmHg 86%
02:00 +16°C° 0 mm 2 mps 738 mmHg 86%
03:00 +16°C° 0 mm 2 mps 738 mmHg 87%
04:00 +16°C° 0 mm 2 mps 738 mmHg 87%
05:00 +15°C° 0 mm 2 mps 738 mmHg 88%
06:00 +17°C° 0 mm 2 mps 738 mmHg 83%
07:00 +18°C° 0 mm 2 mps 738 mmHg 77%
08:00 +20°C° 0 mm 3 mps 738 mmHg 72%
09:00 +21°C° 0 mm 3 mps 738 mmHg 65%
10:00 +22°C° 0 mm 3 mps 738 mmHg 59%
11:00 +25°C° 0 mm 4 mps 738 mmHg 52%
12:00 +25°C° 0 mm 4 mps 738 mmHg 50%
13:00 +25°C° 0 mm 4 mps 738 mmHg 48%
14:00 +26°C° 0 mm 4 mps 737 mmHg 46%
15:00 +26°C° 0 mm 4 mps 737 mmHg 48%
16:00 +25°C° 0 mm 3 mps 737 mmHg 49%
17:00 +25°C° 0 mm 3 mps 737 mmHg 51%
18:00 +22°C° 0 mm 3 mps 737 mmHg 56%
19:00 +20°C° 0 mm 2 mps 737 mmHg 61%
20:00 +19°C° 0 mm 2 mps 737 mmHg 67%
21:00 +18°C° 0 mm 2 mps 737 mmHg 69%
22:00 +18°C° 0 mm 1 mps 737 mmHg 71%
23:00 +16°C° 0 mm 1 mps 737 mmHg 73%
Show more